Showing default

OTTER, 62623

Orbit data source: Space-Track

OTTER, 62623 is a payload satellite owned by USN PGS (US) in SSO that was launched on Tue, 14 Jan 2025 UTC via an FALCON 9 launch vehicle from the Air Force Western Test Range (AFWTR). Payload-class satellites include a variety of spacecraft equipped with specific instruments for various scientific and technological missions. These include communications satellites like Starlink; space stations such as the ISS; scientific satellites like the Hubble; Earth observation satellites from companies like Planet Labs, Umbra, and HawkEye 360; GPS; miniature CubeSats for education and research; and military/defense satellites.

Loading next visibility...
Identifier
62623, 2025-009Q
Orbit
SSO
Country
Flag of USUS
Related business
Manufacturer
USN PGS
Mission
Operational Defense Technology
Bus & Motor
CUBESAT 6U, Unknown motor
Mass
~10 kg wet, ~10 kg dry
Launch date (UTC)
2025-01-14 (1 year ago)
Launch vehicle
FALCON 9
Launch site
Air Force Western Test Range (AFWTR)
Object type
Payload
Rocket body
Debris
Shape & HBR
Box + 2 Pan, 0.2 m
Radar Cross Section
0.080 m², Medium (>0.1 m² and < 1m²)

Expand to show TLE details & history
Last TLE update: 11 hours ago

TLE from 11 hours ago
0 OTTER
1 62623U 25009Q   26034.19690816  .00014528  00000-0  55138-3 0  9995
2 62623  97.4132 117.0820 0006146  71.0419 289.1486 15.26929431 58457
Epoch: 2026-02-03T04:43Z
TLE epoch observation values (Epoch: 2026-02-03T04:43:32.865Z)
Latitude
0.00006°
Longitude
-87.18625°
Altitude
486.716 km
Speed
7.623 km/s
True Right ascension
07h 48m 19s
True Declination
0° 00' 00"
Sunlit
Object was in full shadow at epoch
Visualization orbit readout
Latitude
Unknown
Longitude
Unknown
Altitude
Unknown
Speed
Unknown
Apparent Right ascension
Unknown
Apparent Declination
Unknown
Sunlit
N/A
Visualization observer readout
Local Sidereal Time
18:04:19
Azimuth
Unknown
Elevation
Unknown
Doppler factor
Unknown
Orbital elements
Apogee altitude
486.171 km
Perigee altitude
477.739 km
Semi-major axis
6,860.092 km
Eccentricity
0.00061
Inclination
97.4132°
RAAN
117.082°
Arg. of periapsis
71.0419°
True anomaly
289.08205°
Mean anomaly
289.1486°
Eccentric anomaly
289.11533°
Mean motion
3.81987 °/min
Orbital period
94.24 mins
BSTAR
0.00055138
Loading maneuver chart data...
Computing Atmospheric mass density...
Loading historical data...
Loading historical data...
Loading historical data...
Loading historical data...
Loading historical data...
Loading historical data...
Loading historical data...

Documentation

Showing up to 5 results
|